Simultaneous Nadir Overpasses (SNOs) Predictions

Prediction of SNOs between AQUA and NOAA-19 Satellite Orbit:

Table of predicted SNOs for the next 14.0 days since TLE Epoch: 8/2/2019
Index Date (AQUA) Time (AQUA) Lat,Lon (AQUA) SZA (AQUA ) Date (NOAA-19) Time (NOAA-19) Lat,Lon (NOAA-19) SZA (NOAA-19 ) Distance(km) Time Diff (sec)
1 08/04/2019 17:55:17 80.33,-122.27 64.97 08/04/2019 17:55:23 80.33,-122.17 64.95 1.85 6
2 08/06/2019 23:29:00 -80.32, -25.58 114.46 08/06/2019 23:28:45 -80.32, -25.60 114.45 0.53 15
3 08/09/2019 05:02:44 80.32, 70.97 66.16 08/09/2019 05:02:12 80.31, 71.00 66.17 0.88 32
4 08/09/2019 05:52:11 -80.34,-121.62 113.79 08/09/2019 05:53:09 -80.32,-121.63 113.83 2.77 58
5 08/11/2019 10:36:27 -80.31, 167.63 113.22 08/11/2019 10:35:33 -80.30, 167.58 113.20 1.28 54
6 08/11/2019 11:25:54 80.32, -24.78 66.80 08/11/2019 11:26:36 80.32, -24.91 66.80 2.48 42
7 08/13/2019 16:10:10 80.28, -95.54 67.39 08/13/2019 16:09:00 80.31, -95.60 67.45 3.24 70
8 08/13/2019 16:59:37 -80.31, 71.86 112.55 08/13/2019 16:59:56 -80.32, 71.86 112.55 1.37 19




NCC Satellite Simultaneous Nadir Overpasses (SNOs) Prediction Service
